Time,TemperatureF,DewpointF,PressureIn,WindDirection,WindDirectionDegrees,WindSpeedMPH,WindSpeedGustMPH,Humidity,HourlyPrecipIn,Conditions,Clouds,dailyrainin,SoftwareType,DateUTC
2013-08-06 00:02:00,64.1,62.6,29.90,NE,47,0.0,1.0,95,0.00,,,0.00,Wunderground v.1.15,2013-08-06 04:02:00,
2013-08-06 00:04:00,64.1,62.6,29.90,NE,47,0.0,1.0,95,0.00,,,0.00,Wunderground v.1.15,2013-08-06 04:04:00,
2013-08-06 00:06:00,64.0,62.5,29.90,NE,47,0.0,1.0,95,0.00,,,0.00,Wunderground v.1.15,2013-08-06 04:06:00,
2013-08-06 00:13:00,63.8,62.3,29.90,NE,47,0.0,1.0,95,0.00,,,0.00,Wunderground v.1.15,2013-08-06 04:13:00,
2013-08-06 00:16:00,63.6,62.1,29.90,NE,47,0.0,1.0,95,0.00,,,0.00,Wunderground v.1.15,2013-08-06 04:16:00,
2013-08-06 00:20:00,63.5,62.0,29.90,NE,47,0.0,1.0,95,0.00,,,0.00,Wunderground v.1.15,2013-08-06 04:20:00,
2013-08-06 00:25:00,63.2,61.7,29.90,NE,47,0.0,1.0,95,0.00,,,0.00,Wunderground v.1.15,2013-08-06 04:25:00,
2013-08-06 00:31:00,62.8,61.6,29.90,NE,47,0.0,1.0,96,0.00,,,0.00,Wunderground v.1.15,2013-08-06 04:31:00,
2013-08-06 00:38:00,62.7,61.5,29.90,NE,47,0.0,1.0,96,0.00,,,0.00,Wunderground v.1.15,2013-08-06 04:38:00,
2013-08-06 00:44:00,62.6,61.4,29.89,NE,46,0.0,1.0,96,0.00,,,0.00,Wunderground v.1.15,2013-08-06 04:44:00,
2013-08-06 00:50:00,62.5,61.3,29.89,NE,47,0.0,1.0,96,0.00,,,0.00,Wunderground v.1.15,2013-08-06 04:50:00,
2013-08-06 00:56:00,62.4,61.2,29.89,NW,316,0.0,1.0,96,0.00,,,0.00,Wunderground v.1.15,2013-08-06 04:56:00,
2013-08-06 01:02:00,62.2,61.0,29.90,NNE,13,0.0,1.0,96,0.00,,,0.00,Wunderground v.1.15,2013-08-06 05:02:00,
2013-08-06 01:13:00,61.9,60.7,29.89,ENE,59,0.0,1.0,96,0.00,,,0.00,Wunderground v.1.15,2013-08-06 05:13:00,
2013-08-06 01:20:00,61.7,60.5,29.89,ENE,58,0.0,1.0,96,0.00,,,0.00,Wunderground v.1.15,2013-08-06 05:20:00,
2013-08-06 01:26:00,61.6,60.4,29.88,ENE,68,0.0,1.0,96,0.00,,,0.00,Wunderground v.1.15,2013-08-06 05:26:00,
2013-08-06 01:32:00,61.5,60.3,29.88,NNE,30,0.0,1.0,96,0.00,,,0.00,Wunderground v.1.15,2013-08-06 05:32:00,
2013-08-06 01:41:00,61.4,60.2,29.88,WSW,250,0.0,1.0,96,0.00,,,0.00,Wunderground v.1.15,2013-08-06 05:41:00,
2013-08-06 01:48:00,61.5,60.3,29.88,WSW,250,0.0,1.0,96,0.00,,,0.00,Wunderground v.1.15,2013-08-06 05:48:00,
2013-08-06 01:55:00,61.7,60.5,29.88,ENE,67,0.0,1.0,96,0.00,,,0.00,Wunderground v.1.15,2013-08-06 05:55:00,
2013-08-06 02:02:00,61.9,60.7,29.88,ENE,67,0.0,1.0,96,0.00,,,0.00,Wunderground v.1.15,2013-08-06 06:02:00,
2013-08-06 02:08:00,61.9,60.7,29.88,ENE,66,0.0,1.0,96,0.00,,,0.00,Wunderground v.1.15,2013-08-06 06:08:00,
2013-08-06 02:15:00,61.8,60.6,29.87,ENE,67,0.0,1.0,96,0.00,,,0.00,Wunderground v.1.15,2013-08-06 06:15:00,
2013-08-06 02:21:00,61.8,60.6,29.88,ENE,67,0.0,1.0,96,0.00,,,0.00,Wunderground v.1.15,2013-08-06 06:21:00,
2013-08-06 02:33:00,61.4,60.2,29.88,ENE,67,0.0,1.0,96,0.00,,,0.00,Wunderground v.1.15,2013-08-06 06:33:00,
2013-08-06 02:42:00,61.1,60.0,29.88,ENE,67,0.0,1.0,96,0.00,,,0.00,Wunderground v.1.15,2013-08-06 06:42:00,
2013-08-06 02:48:00,60.8,59.7,29.88,ENE,67,0.0,1.0,96,0.00,,,0.00,Wunderground v.1.15,2013-08-06 06:48:00,
2013-08-06 03:04:00,60.4,59.5,29.87,ENE,66,0.0,1.0,97,0.00,,,0.00,Wunderground v.1.15,2013-08-06 07:04:00,
2013-08-06 03:15:00,60.4,59.5,29.88,ENE,68,0.0,1.0,97,0.00,,,0.00,Wunderground v.1.15,2013-08-06 07:15:00,
2013-08-06 03:21:00,60.3,59.4,29.88,ENE,68,0.0,1.0,97,0.00,,,0.00,Wunderground v.1.15,2013-08-06 07:21:00,
2013-08-06 03:28:00,60.4,59.5,29.88,ENE,67,0.0,1.0,97,0.00,,,0.00,Wunderground v.1.15,2013-08-06 07:28:00,
2013-08-06 03:36:00,60.3,59.4,29.88,ENE,67,0.0,1.0,97,0.00,,,0.00,Wunderground v.1.15,2013-08-06 07:36:00,
2013-08-06 03:42:00,60.3,59.4,29.88,ENE,67,0.0,1.0,97,0.00,,,0.00,Wunderground v.1.15,2013-08-06 07:42:00,
2013-08-06 03:50:00,60.3,59.4,29.88,ENE,66,0.0,1.0,97,0.00,,,0.00,Wunderground v.1.15,2013-08-06 07:50:00,
2013-08-06 03:56:00,60.3,59.4,29.87,ENE,69,0.0,1.0,97,0.00,,,0.00,Wunderground v.1.15,2013-08-06 07:56:00,
2013-08-06 04:02:00,60.4,59.5,29.87,ENE,63,0.0,1.0,97,0.00,,,0.00,Wunderground v.1.15,2013-08-06 08:02:00,
2013-08-06 04:09:00,60.5,59.6,29.87,NNE,22,0.0,1.0,97,0.00,,,0.00,Wunderground v.1.15,2013-08-06 08:09:00,
2013-08-06 04:14:00,60.5,59.6,29.87,NNE,21,0.0,1.0,97,0.00,,,0.00,Wunderground v.1.15,2013-08-06 08:14:00,
2013-08-06 04:22:00,60.6,59.7,29.87,NNE,22,0.0,1.0,97,0.00,,,0.00,Wunderground v.1.15,2013-08-06 08:22:00,
2013-08-06 04:31:00,60.7,59.8,29.87,NNE,22,0.0,1.0,97,0.00,,,0.00,Wunderground v.1.15,2013-08-06 08:31:00,
2013-08-06 04:38:00,60.8,59.9,29.86,NNE,21,0.0,1.0,97,0.00,,,0.00,Wunderground v.1.15,2013-08-06 08:38:00,
2013-08-06 04:45:00,61.0,60.1,29.85,ENE,73,0.0,1.0,97,0.00,,,0.00,Wunderground v.1.15,2013-08-06 08:45:00,
2013-08-06 05:03:00,61.2,60.3,29.85,East,80,0.0,1.0,97,0.00,,,0.00,Wunderground v.1.15,2013-08-06 09:03:00,
2013-08-06 05:11:00,61.3,60.4,29.85,East,81,0.0,1.0,97,0.00,,,0.00,Wunderground v.1.15,2013-08-06 09:11:00,
2013-08-06 05:17:00,61.3,60.4,29.85,East,80,0.0,1.0,97,0.00,,,0.00,Wunderground v.1.15,2013-08-06 09:17:00,
2013-08-06 05:24:00,61.4,60.2,29.85,East,80,0.0,1.0,96,0.00,,,0.00,Wunderground v.1.15,2013-08-06 09:24:00,
2013-08-06 05:31:00,61.4,60.2,29.85,ENE,71,0.0,1.0,96,0.00,,,0.00,Wunderground v.1.15,2013-08-06 09:31:00,
2013-08-06 05:37:00,61.5,60.3,29.85,East,96,0.0,1.0,96,0.00,,,0.00,Wunderground v.1.15,2013-08-06 09:37:00,
2013-08-06 05:44:00,61.5,60.3,29.86,ENE,78,0.0,1.0,96,0.00,,,0.00,Wunderground v.1.15,2013-08-06 09:44:00,
2013-08-06 05:50:00,61.6,60.4,29.86,ENE,77,0.0,1.0,96,0.00,,,0.00,Wunderground v.1.15,2013-08-06 09:50:00,
2013-08-06 06:06:00,61.8,60.6,29.85,WSW,248,0.0,1.0,96,0.00,,,0.00,Wunderground v.1.15,2013-08-06 10:06:00,
2013-08-06 06:14:00,61.9,60.7,29.85,WSW,243,0.0,1.0,96,0.00,,,0.00,Wunderground v.1.15,2013-08-06 10:14:00,
2013-08-06 06:26:00,62.0,60.6,29.86,WSW,242,1.0,1.0,95,0.00,,,0.00,Wunderground v.1.15,2013-08-06 10:26:00,
2013-08-06 06:38:00,62.1,60.9,29.86,SW,236,1.0,1.0,96,0.00,,,0.00,Wunderground v.1.15,2013-08-06 10:38:00,
2013-08-06 06:45:00,62.2,60.8,29.87,SSW,207,1.0,1.0,95,0.00,,,0.00,Wunderground v.1.15,2013-08-06 10:45:00,
2013-08-06 06:52:00,62.3,60.8,29.87,WSW,245,1.0,1.0,95,0.00,,,0.00,Wunderground v.1.15,2013-08-06 10:52:00,
2013-08-06 06:58:00,62.3,60.8,29.87,WSW,249,0.0,1.0,95,0.00,,,0.00,Wunderground v.1.15,2013-08-06 10:58:00,
2013-08-06 07:04:00,62.4,60.9,29.87,SSW,212,0.0,1.0,95,0.00,,,0.00,Wunderground v.1.15,2013-08-06 11:04:00,
2013-08-06 07:09:00,62.4,60.9,29.87,SW,233,0.0,1.0,95,0.00,,,0.00,Wunderground v.1.15,2013-08-06 11:09:00,
2013-08-06 07:18:00,62.5,61.0,29.86,WSW,239,0.0,1.0,95,0.00,,,0.00,Wunderground v.1.15,2013-08-06 11:18:00,
2013-08-06 07:24:00,62.5,61.0,29.87,West,262,0.0,1.0,95,0.00,,,0.00,Wunderground v.1.15,2013-08-06 11:24:00,
2013-08-06 07:33:00,62.7,61.2,29.86,WSW,248,0.0,1.0,95,0.00,,,0.00,Wunderground v.1.15,2013-08-06 11:33:00,
2013-08-06 07:39:00,62.9,61.4,29.87,SSW,204,0.0,1.0,95,0.00,,,0.00,Wunderground v.1.15,2013-08-06 11:39:00,
2013-08-06 07:44:00,63.1,61.6,29.87,ESE,103,1.0,1.0,95,0.00,,,0.00,Wunderground v.1.15,2013-08-06 11:44:00,
2013-08-06 07:51:00,63.3,61.8,29.87,WSW,243,1.0,1.0,95,0.00,,,0.00,Wunderground v.1.15,2013-08-06 11:51:00,
2013-08-06 08:00:00,63.6,62.1,29.88,WSW,238,1.0,1.0,95,0.00,,,0.00,Wunderground v.1.15,2013-08-06 12:00:00,
2013-08-06 08:05:00,63.8,62.0,29.89,SW,217,1.0,2.0,94,0.00,,,0.00,Wunderground v.1.15,2013-08-06 12:05:00,
2013-08-06 08:12:00,64.0,62.2,29.89,WSW,238,1.0,1.0,94,0.00,,,0.00,Wunderground v.1.15,2013-08-06 12:12:00,
2013-08-06 08:20:00,64.2,62.4,29.90,SW,227,0.0,1.0,94,0.00,,,0.00,Wunderground v.1.15,2013-08-06 12:20:00,
2013-08-06 08:25:00,64.3,62.5,29.89,SW,217,0.0,1.0,94,0.00,,,0.00,Wunderground v.1.15,2013-08-06 12:25:00,
2013-08-06 08:34:00,64.7,62.9,29.90,SW,222,1.0,1.0,94,0.00,,,0.00,Wunderground v.1.15,2013-08-06 12:34:00,
2013-08-06 08:46:00,65.6,63.2,29.90,SW,233,1.0,1.0,92,0.00,,,0.00,Wunderground v.1.15,2013-08-06 12:46:00,
2013-08-06 08:52:00,66.2,63.8,29.90,South,191,1.0,2.0,92,0.00,,,0.00,Wunderground v.1.15,2013-08-06 12:52:00,
2013-08-06 09:03:00,67.5,64.5,29.89,West,270,1.0,1.0,90,0.00,,,0.00,Wunderground v.1.15,2013-08-06 13:03:00,
2013-08-06 09:08:00,67.8,64.8,29.89,SW,233,1.0,1.0,90,0.00,,,0.00,Wunderground v.1.15,2013-08-06 13:08:00,
2013-08-06 09:15:00,68.6,65.2,29.89,SW,219,1.0,1.0,89,0.00,,,0.00,Wunderground v.1.15,2013-08-06 13:15:00,
2013-08-06 09:20:00,69.1,65.1,29.89,SW,225,1.0,5.0,87,0.00,,,0.00,Wunderground v.1.15,2013-08-06 13:20:00,
2013-08-06 09:32:00,70.1,66.0,29.89,SW,214,2.0,2.0,87,0.00,,,0.00,Wunderground v.1.15,2013-08-06 13:32:00,
2013-08-06 09:39:00,70.2,65.8,29.89,SSW,207,3.0,3.0,86,0.00,,,0.00,Wunderground v.1.15,2013-08-06 13:39:00,
2013-08-06 09:46:00,70.3,65.9,29.89,SSW,204,3.0,4.0,86,0.00,,,0.00,Wunderground v.1.15,2013-08-06 13:46:00,
2013-08-06 09:52:00,70.8,66.4,29.89,SW,226,3.0,3.0,86,0.00,,,0.00,Wunderground v.1.15,2013-08-06 13:52:00,
2013-08-06 10:07:00,70.9,66.2,29.89,SW,216,3.0,4.0,85,0.00,,,0.00,Wunderground v.1.15,2013-08-06 14:07:00,
2013-08-06 10:14:00,70.7,66.3,29.88,SW,215,3.0,3.0,86,0.00,,,0.00,Wunderground v.1.15,2013-08-06 14:14:00,
2013-08-06 10:21:00,70.6,65.9,29.88,SW,218,3.0,3.0,85,0.00,,,0.00,Wunderground v.1.15,2013-08-06 14:21:00,
2013-08-06 10:26:00,70.8,66.4,29.88,SSW,207,2.0,2.0,86,0.00,,,0.00,Wunderground v.1.15,2013-08-06 14:26:00,
2013-08-06 10:32:00,71.2,66.8,29.88,SSW,213,2.0,3.0,86,0.00,,,0.00,Wunderground v.1.15,2013-08-06 14:32:00,
2013-08-06 10:38:00,71.6,67.2,29.88,WSW,239,2.0,2.0,86,0.00,,,0.00,Wunderground v.1.15,2013-08-06 14:38:00,
2013-08-06 10:46:00,72.0,66.9,29.88,SSW,209,2.0,4.0,84,0.00,,,0.00,Wunderground v.1.15,2013-08-06 14:46:00,
2013-08-06 10:51:00,72.0,67.2,29.88,WSW,256,2.0,4.0,85,0.00,,,0.00,Wunderground v.1.15,2013-08-06 14:51:00,
2013-08-06 10:58:00,71.9,67.1,29.88,SSW,207,2.0,4.0,85,0.00,,,0.00,Wunderground v.1.15,2013-08-06 14:58:00,
2013-08-06 11:04:00,71.7,67.3,29.88,SW,222,3.0,3.0,86,0.00,,,0.00,Wunderground v.1.15,2013-08-06 15:04:00,
2013-08-06 11:10:00,71.6,67.2,29.87,SW,223,2.0,2.0,86,0.00,,,0.00,Wunderground v.1.15,2013-08-06 15:10:00,
2013-08-06 11:16:00,71.7,67.3,29.87,SSW,209,2.0,3.0,86,0.00,,,0.00,Wunderground v.1.15,2013-08-06 15:16:00,
2013-08-06 11:24:00,71.9,67.5,29.87,SSW,203,2.0,3.0,86,0.00,,,0.00,Wunderground v.1.15,2013-08-06 15:24:00,
2013-08-06 11:31:00,72.0,67.6,29.87,WSW,245,3.0,3.0,86,0.00,,,0.00,Wunderground v.1.15,2013-08-06 15:31:00,
2013-08-06 11:36:00,72.5,68.1,29.87,SW,223,3.0,5.0,86,0.00,,,0.00,Wunderground v.1.15,2013-08-06 15:36:00,
2013-08-06 11:43:00,72.7,67.9,29.87,SW,229,3.0,3.0,85,0.00,,,0.00,Wunderground v.1.15,2013-08-06 15:43:00,
2013-08-06 11:52:00,72.7,67.9,29.87,SSW,205,4.0,4.0,85,0.00,,,0.00,Wunderground v.1.15,2013-08-06 15:52:00,
2013-08-06 11:59:00,72.7,67.9,29.87,SSW,209,3.0,3.0,85,0.00,,,0.00,Wunderground v.1.15,2013-08-06 15:59:00,
2013-08-06 12:07:00,72.8,68.0,29.87,WSW,252,3.0,3.0,85,0.00,,,0.00,Wunderground v.1.15,2013-08-06 16:07:00,
2013-08-06 12:12:00,72.6,67.8,29.88,WSW,253,2.0,4.0,85,0.00,,,0.00,Wunderground v.1.15,2013-08-06 16:12:00,
2013-08-06 12:20:00,72.5,67.7,29.89,SW,221,3.0,3.0,85,0.00,,,0.00,Wunderground v.1.15,2013-08-06 16:20:00,
2013-08-06 12:33:00,72.6,67.8,29.89,SW,232,2.0,2.0,85,0.00,,,0.00,Wunderground v.1.15,2013-08-06 16:33:00,
2013-08-06 12:42:00,72.9,68.1,29.89,SSW,200,2.0,2.0,85,0.00,,,0.00,Wunderground v.1.15,2013-08-06 16:42:00,
2013-08-06 12:48:00,73.1,68.3,29.89,SSW,205,2.0,2.0,85,0.00,,,0.00,Wunderground v.1.15,2013-08-06 16:48:00,
2013-08-06 12:54:00,73.1,68.3,29.89,SSW,210,2.0,2.0,85,0.00,,,0.00,Wunderground v.1.15,2013-08-06 16:54:00,
2013-08-06 12:59:00,73.1,68.7,29.89,WSW,245,2.0,2.0,86,0.00,,,0.00,Wunderground v.1.15,2013-08-06 16:59:00,
2013-08-06 13:06:00,73.3,68.9,29.89,SSW,208,2.0,2.0,86,0.00,,,0.00,Wunderground v.1.15,2013-08-06 17:06:00,
2013-08-06 13:13:00,73.4,69.0,29.89,SSW,202,2.0,2.0,86,0.00,,,0.00,Wunderground v.1.15,2013-08-06 17:13:00,
2013-08-06 13:26:00,73.3,68.5,29.89,SW,228,2.0,2.0,85,0.00,,,0.00,Wunderground v.1.15,2013-08-06 17:26:00,
2013-08-06 13:32:00,72.9,68.5,29.89,SW,224,2.0,4.0,86,0.00,,,0.00,Wunderground v.1.15,2013-08-06 17:32:00,
2013-08-06 13:42:00,73.1,69.0,29.88,SW,219,1.0,1.0,87,0.00,,,0.00,Wunderground v.1.15,2013-08-06 17:42:00,
2013-08-06 13:48:00,73.2,69.1,29.88,SSW,204,2.0,2.0,87,0.00,,,0.00,Wunderground v.1.15,2013-08-06 17:48:00,
2013-08-06 13:54:00,73.3,69.2,29.88,WSW,250,2.0,2.0,87,0.00,,,0.00,Wunderground v.1.15,2013-08-06 17:54:00,
2013-08-06 14:00:00,73.4,69.3,29.88,SSW,205,2.0,2.0,87,0.00,,,0.00,Wunderground v.1.15,2013-08-06 18:00:00,
2013-08-06 14:06:00,73.6,69.5,29.88,WSW,253,1.0,2.0,87,0.00,,,0.00,Wunderground v.1.15,2013-08-06 18:06:00,
2013-08-06 14:12:00,74.0,69.9,29.88,SSE,148,1.0,1.0,87,0.00,,,0.00,Wunderground v.1.15,2013-08-06 18:12:00,
2013-08-06 14:19:00,74.4,69.9,29.88,SW,225,1.0,3.0,86,0.00,,,0.00,Wunderground v.1.15,2013-08-06 18:19:00,
2013-08-06 14:25:00,74.9,70.4,29.88,WSW,245,0.0,1.0,86,0.00,,,0.00,Wunderground v.1.15,2013-08-06 18:25:00,
2013-08-06 14:33:00,75.2,70.0,29.87,SSW,209,1.0,1.0,84,0.00,,,0.00,Wunderground v.1.15,2013-08-06 18:33:00,
2013-08-06 14:38:00,75.9,71.4,29.87,SSW,210,1.0,1.0,86,0.00,,,0.00,Wunderground v.1.15,2013-08-06 18:38:00,
2013-08-06 14:46:00,75.9,70.4,29.87,SSW,202,1.0,1.0,83,0.00,,,0.00,Wunderground v.1.15,2013-08-06 18:46:00,
2013-08-06 14:52:00,76.4,70.9,29.87,SW,233,1.0,1.0,83,0.00,,,0.00,Wunderground v.1.15,2013-08-06 18:52:00,
2013-08-06 14:58:00,77.2,71.3,29.87,West,266,1.0,2.0,82,0.00,,,0.00,Wunderground v.1.15,2013-08-06 18:58:00,
2013-08-06 15:04:00,77.5,71.2,29.86,WNW,293,1.0,1.0,81,0.00,,,0.00,Wunderground v.1.15,2013-08-06 19:04:00,
2013-08-06 15:11:00,77.8,71.5,29.86,SSW,201,1.0,1.0,81,0.00,,,0.00,Wunderground v.1.15,2013-08-06 19:11:00,
2013-08-06 15:26:00,78.1,71.4,29.86,South,174,0.0,1.0,80,0.00,,,0.00,Wunderground v.1.15,2013-08-06 19:26:00,
2013-08-06 15:32:00,77.9,71.2,29.86,SSW,202,0.0,1.0,80,0.00,,,0.00,Wunderground v.1.15,2013-08-06 19:32:00,
2013-08-06 15:41:00,77.5,71.9,29.86,SW,215,1.0,1.0,83,0.00,,,0.00,Wunderground v.1.15,2013-08-06 19:41:00,
2013-08-06 15:47:00,77.7,71.4,29.86,WSW,257,1.0,2.0,81,0.00,,,0.00,Wunderground v.1.15,2013-08-06 19:47:00,
2013-08-06 15:56:00,77.8,71.9,29.86,SW,234,1.0,2.0,82,0.00,,,0.00,Wunderground v.1.15,2013-08-06 19:56:00,
2013-08-06 16:04:00,78.1,72.2,29.85,East,94,1.0,1.0,82,0.00,,,0.00,Wunderground v.1.15,2013-08-06 20:04:00,
2013-08-06 16:14:00,78.3,72.3,29.85,WSW,240,1.0,1.0,82,0.00,,,0.00,Wunderground v.1.15,2013-08-06 20:14:00,
2013-08-06 16:20:00,78.4,72.1,29.85,SSW,208,1.0,2.0,81,0.00,,,0.00,Wunderground v.1.15,2013-08-06 20:20:00,
2013-08-06 16:25:00,78.3,72.0,29.85,West,259,2.0,2.0,81,0.00,,,0.00,Wunderground v.1.15,2013-08-06 20:25:00,
2013-08-06 16:32:00,78.1,71.8,29.85,SSW,200,1.0,3.0,81,0.00,,,0.00,Wunderground v.1.15,2013-08-06 20:32:00,
2013-08-06 16:34:00,78.0,71.3,29.85,WSW,250,2.0,3.0,80,0.00,,,0.00,Wunderground v.1.15,2013-08-06 20:34:00,
2013-08-06 16:41:00,78.1,72.2,29.84,ENE,60,1.0,1.0,82,0.00,,,0.00,Wunderground v.1.15,2013-08-06 20:41:00,
2013-08-06 16:47:00,78.2,72.3,29.85,West,270,1.0,4.0,82,0.00,,,0.00,Wunderground v.1.15,2013-08-06 20:47:00,
2013-08-06 16:56:00,77.6,71.3,29.85,SSW,205,2.0,3.0,81,0.00,,,0.00,Wunderground v.1.15,2013-08-06 20:56:00,
2013-08-06 17:02:00,77.4,71.5,29.85,SW,233,1.0,3.0,82,0.00,,,0.00,Wunderground v.1.15,2013-08-06 21:02:00,
2013-08-06 17:08:00,77.3,71.4,29.85,SSW,208,1.0,3.0,82,0.00,,,0.00,Wunderground v.1.15,2013-08-06 21:08:00,
2013-08-06 17:14:00,77.4,71.8,29.85,WSW,243,2.0,2.0,83,0.00,,,0.00,Wunderground v.1.15,2013-08-06 21:14:00,
2013-08-06 17:20:00,78.1,72.2,29.85,SW,221,1.0,2.0,82,0.00,,,0.00,Wunderground v.1.15,2013-08-06 21:20:00,
2013-08-06 17:26:00,78.2,71.9,29.84,SSW,203,2.0,2.0,81,0.00,,,0.00,Wunderground v.1.15,2013-08-06 21:26:00,
2013-08-06 17:32:00,78.3,72.0,29.84,SSW,205,2.0,4.0,81,0.00,,,0.00,Wunderground v.1.15,2013-08-06 21:32:00,
2013-08-06 17:39:00,78.7,72.0,29.84,SSW,203,2.0,3.0,80,0.00,,,0.00,Wunderground v.1.15,2013-08-06 21:39:00,
2013-08-06 17:44:00,79.2,72.5,29.84,South,184,2.0,2.0,80,0.00,,,0.00,Wunderground v.1.15,2013-08-06 21:44:00,
2013-08-06 17:50:00,79.6,72.5,29.84,SW,226,2.0,3.0,79,0.00,,,0.00,Wunderground v.1.15,2013-08-06 21:50:00,
2013-08-06 17:56:00,80.0,72.5,29.84,ESE,108,2.0,3.0,78,0.00,,,0.00,Wunderground v.1.15,2013-08-06 21:56:00,
2013-08-06 18:02:00,79.7,72.2,29.84,SSW,200,2.0,4.0,78,0.00,,,0.00,Wunderground v.1.15,2013-08-06 22:02:00,
2013-08-06 18:08:00,79.3,72.2,29.84,SW,226,2.0,4.0,79,0.00,,,0.00,Wunderground v.1.15,2013-08-06 22:08:00,
2013-08-06 18:14:00,79.1,72.4,29.84,WSW,238,2.0,3.0,80,0.00,,,0.00,Wunderground v.1.15,2013-08-06 22:14:00,
2013-08-06 18:20:00,79.3,73.0,29.84,WSW,240,2.0,4.0,81,0.00,,,0.00,Wunderground v.1.15,2013-08-06 22:20:00,
2013-08-06 18:28:00,80.1,73.0,29.84,West,270,2.0,4.0,79,0.00,,,0.00,Wunderground v.1.15,2013-08-06 22:28:00,
2013-08-06 18:34:00,80.6,73.1,29.84,SE,131,1.0,2.0,78,0.00,,,0.00,Wunderground v.1.15,2013-08-06 22:34:00,
2013-08-06 18:41:00,80.8,72.9,29.84,ENE,71,1.0,1.0,77,0.00,,,0.00,Wunderground v.1.15,2013-08-06 22:41:00,
2013-08-06 18:47:00,81.2,73.3,29.84,ESE,110,0.0,1.0,77,0.00,,,0.00,Wunderground v.1.15,2013-08-06 22:47:00,
2013-08-06 18:53:00,80.7,72.4,29.84,SW,221,1.0,4.0,76,0.00,,,0.00,Wunderground v.1.15,2013-08-06 22:53:00,
2013-08-06 19:00:00,79.9,72.8,29.84,WSW,245,1.0,1.0,79,0.00,,,0.00,Wunderground v.1.15,2013-08-06 23:00:00,
2013-08-06 19:06:00,80.0,72.5,29.84,SW,219,1.0,1.0,78,0.00,,,0.00,Wunderground v.1.15,2013-08-06 23:06:00,
2013-08-06 19:12:00,80.4,73.3,29.84,WNW,283,0.0,1.0,79,0.00,,,0.00,Wunderground v.1.15,2013-08-06 23:12:00,
2013-08-06 19:18:00,80.8,73.3,29.84,SW,233,1.0,1.0,78,0.00,,,0.00,Wunderground v.1.15,2013-08-06 23:18:00,
2013-08-06 19:24:00,80.7,72.8,29.84,WSW,239,1.0,4.0,77,0.00,,,0.00,Wunderground v.1.15,2013-08-06 23:24:00,
2013-08-06 19:32:00,80.1,73.0,29.84,WSW,240,1.0,2.0,79,0.00,,,0.00,Wunderground v.1.15,2013-08-06 23:32:00,
2013-08-06 19:40:00,79.3,72.2,29.84,WSW,253,2.0,2.0,79,0.00,,,0.00,Wunderground v.1.15,2013-08-06 23:40:00,
2013-08-06 19:46:00,78.8,72.1,29.85,SW,231,2.0,2.0,80,0.00,,,0.00,Wunderground v.1.15,2013-08-06 23:46:00,
2013-08-06 19:52:00,78.5,72.2,29.84,West,261,1.0,1.0,81,0.00,,,0.00,Wunderground v.1.15,2013-08-06 23:52:00,
2013-08-06 19:58:00,78.2,72.3,29.84,WSW,245,0.0,1.0,82,0.00,,,0.00,Wunderground v.1.15,2013-08-06 23:58:00,
2013-08-06 20:04:00,78.1,72.5,29.84,WSW,245,0.0,1.0,83,0.00,,,0.00,Wunderground v.1.15,2013-08-07 00:04:00,
2013-08-06 20:10:00,78.1,72.9,29.84,WSW,245,0.0,1.0,84,0.00,,,0.00,Wunderground v.1.15,2013-08-07 00:10:00,
2013-08-06 20:16:00,77.4,72.2,29.84,WSW,245,0.0,1.0,84,0.00,,,0.00,Wunderground v.1.15,2013-08-07 00:16:00,
2013-08-06 20:22:00,76.1,71.3,29.84,WSW,245,0.0,1.0,85,0.00,,,0.00,Wunderground v.1.15,2013-08-07 00:22:00,
2013-08-06 20:29:00,75.0,70.9,29.84,WSW,245,0.0,1.0,87,0.00,,,0.00,Wunderground v.1.15,2013-08-07 00:29:00,
2013-08-06 20:36:00,73.7,69.9,29.84,WSW,245,0.0,1.0,88,0.00,,,0.00,Wunderground v.1.15,2013-08-07 00:36:00,
2013-08-06 20:47:00,72.5,69.7,29.84,WSW,245,0.0,1.0,91,0.00,,,0.00,Wunderground v.1.15,2013-08-07 00:47:00,
2013-08-06 20:52:00,71.8,69.0,29.84,WSW,245,0.0,1.0,91,0.00,,,0.00,Wunderground v.1.15,2013-08-07 00:52:00,
2013-08-06 20:58:00,71.4,69.0,29.83,WSW,244,0.0,1.0,92,0.00,,,0.00,Wunderground v.1.15,2013-08-07 00:58:00,
2013-08-06 21:04:00,71.1,69.0,29.84,WSW,245,0.0,1.0,93,0.00,,,0.00,Wunderground v.1.15,2013-08-07 01:04:00,
2013-08-06 21:10:00,70.7,68.6,29.84,WSW,245,0.0,1.0,93,0.00,,,0.00,Wunderground v.1.15,2013-08-07 01:10:00,
2013-08-06 21:16:00,70.3,68.5,29.84,WSW,244,0.0,1.0,94,0.00,,,0.00,Wunderground v.1.15,2013-08-07 01:16:00,
2013-08-06 21:22:00,70.1,68.3,29.84,WSW,244,0.0,1.0,94,0.00,,,0.00,Wunderground v.1.15,2013-08-07 01:22:00,
2013-08-06 21:28:00,69.9,68.4,29.84,WSW,245,0.0,1.0,95,0.00,,,0.00,Wunderground v.1.15,2013-08-07 01:28:00,
2013-08-06 21:34:00,69.8,68.3,29.84,WSW,245,0.0,1.0,95,0.00,,,0.00,Wunderground v.1.15,2013-08-07 01:34:00,
2013-08-06 21:45:00,69.7,68.2,29.84,WSW,245,0.0,1.0,95,0.00,,,0.00,Wunderground v.1.15,2013-08-07 01:45:00,
2013-08-06 21:50:00,69.7,68.5,29.84,WSW,245,0.0,1.0,96,0.00,,,0.00,Wunderground v.1.15,2013-08-07 01:50:00,
2013-08-06 21:56:00,69.8,68.6,29.84,WSW,244,0.0,1.0,96,0.00,,,0.00,Wunderground v.1.15,2013-08-07 01:56:00,
2013-08-06 22:02:00,69.7,68.5,29.85,WSW,244,0.0,1.0,96,0.00,,,0.00,Wunderground v.1.15,2013-08-07 02:02:00,
2013-08-06 22:11:00,69.6,68.4,29.85,WSW,245,0.0,1.0,96,0.00,,,0.00,Wunderground v.1.15,2013-08-07 02:11:00,
2013-08-06 22:17:00,69.6,68.4,29.85,WSW,245,0.0,1.0,96,0.00,,,0.00,Wunderground v.1.15,2013-08-07 02:17:00,
2013-08-06 22:26:00,69.5,68.3,29.85,WSW,245,0.0,1.0,96,0.00,,,0.00,Wunderground v.1.15,2013-08-07 02:26:00,
2013-08-06 22:32:00,69.4,68.2,29.85,WSW,245,0.0,1.0,96,0.00,,,0.00,Wunderground v.1.15,2013-08-07 02:32:00,
2013-08-06 22:40:00,69.2,68.0,29.85,WSW,245,0.0,1.0,96,0.00,,,0.00,Wunderground v.1.15,2013-08-07 02:40:00,
2013-08-06 22:46:00,69.3,68.4,29.85,WSW,244,0.0,1.0,97,0.00,,,0.00,Wunderground v.1.15,2013-08-07 02:46:00,
2013-08-06 22:53:00,69.2,68.3,29.85,WSW,244,0.0,1.0,97,0.00,,,0.00,Wunderground v.1.15,2013-08-07 02:53:00,
2013-08-06 22:59:00,69.2,68.3,29.85,WSW,245,0.0,1.0,97,0.00,,,0.00,Wunderground v.1.15,2013-08-07 02:59:00,
2013-08-06 23:04:00,69.2,68.3,29.85,WSW,245,0.0,1.0,97,0.00,,,0.00,Wunderground v.1.15,2013-08-07 03:04:00,
2013-08-06 23:12:00,69.3,68.4,29.85,WSW,245,0.0,1.0,97,0.00,,,0.00,Wunderground v.1.15,2013-08-07 03:12:00,
2013-08-06 23:19:00,69.2,68.3,29.85,WSW,244,0.0,1.0,97,0.00,,,0.00,Wunderground v.1.15,2013-08-07 03:19:00,
2013-08-06 23:24:00,69.2,68.3,29.85,WSW,244,0.0,1.0,97,0.00,,,0.00,Wunderground v.1.15,2013-08-07 03:24:00,
2013-08-06 23:30:00,69.2,68.3,29.85,WSW,245,0.0,1.0,97,0.00,,,0.00,Wunderground v.1.15,2013-08-07 03:30:00,
2013-08-06 23:36:00,69.2,68.3,29.85,WSW,245,0.0,1.0,97,0.00,,,0.00,Wunderground v.1.15,2013-08-07 03:36:00,
2013-08-06 23:42:00,69.1,68.2,29.85,WSW,245,0.0,1.0,97,0.00,,,0.00,Wunderground v.1.15,2013-08-07 03:42:00,
2013-08-06 23:49:00,69.0,68.1,29.85,WSW,244,0.0,1.0,97,0.00,,,0.00,Wunderground v.1.15,2013-08-07 03:49:00,
2013-08-06 23:57:00,69.0,68.1,29.85,WSW,245,0.0,1.0,97,0.00,,,0.00,Wunderground v.1.15,2013-08-07 03:57:00,